Dewpoint
9 9 9 8 9 8 8 8 8 8 6 -1 -6 -9 -12 -15 -18 -19 -19 -19 -19 -18 -7 1 2 2 2 -0 -1 -1 -2 -3 -4 -4 -7 -7 -8 -9 -10 -15 -16 -16 -16
9 8 8 9 8 8 8 8 7 -0 -5 -7 -10 -13 -15 -19 -21 -21 -20 -20 -18 -12 -9 1 3 3 3 1 -1 -2 -3 -3 -3 -4 -4 -6 -6 -7 -8 -11 -12 -12 -13
8 8 8 8 8 8 8 1 -4 -3 -6 -10 -12 -16 -19 -21 -21 -19 -20 -19 -14 -9 -4 0 1 2 2 1 -0 1 -0 -1 -1 -3 -4 -5 -5 -7 -9 -10 -10 -11 -11
8 7 7 8 8 5 -2 -2 -3 -5 -7 -9 -14 -17 -16 -17 -16 -17 -15 -14 -16 -9 -1 0 -0 -0 -1 -2 -1 0 1 0 0 -0 -2 -4 -5 -5 -8 -10 -10 -13 -14
6 6 8 7 2 -2 -1 -1 -1 -2 -4 -10 -12 -12 -11 -12 -13 -12 -11 -12 -13 -14 -10 -7 -6 -6 -5 -5 -2 -0 -1 -1 -1 -1 -1 -1 -3 -4 -6 -8 -11 -16 -11
4 5 7 2 -1 -0 0 -0 -0 -1 -3 -7 -8 -7 -8 -9 -9 -9 -11 -10 -11 -13 -14 -14 -13 -11 -8 -7 -7 -6 -2 -2 -1 0 -1 -0 -0 -1 -3 -5 -8 -12 -3
5 5 1 -0 0 1 0 -0 -0 -0 -2 -4 -5 -3 -6 -8 -8 -7 -11 -9 -9 -8 -8 -8 -10 -11 -7 -6 -6 -7 -7 -4 -1 -1 1 1 -1 -1 -1 -3 -2 -9 -8
3 0 1 1 2 1 -0 -0 0 -0 -1 -2 -3 -4 -4 -5 -10 -10 -9 -7 -7 -7 -7 -7 -9 -9 -8 -6 -5 -6 -7 -7 -7 -7 -5 -3 -2 -2 -2 -3 -3 -3 -3
1 1 1 2 2 0 -0 1 2 1 -0 -2 -3 -6 -6 -8 -5 -7 -11 -9 -6 -5 -6 -7 -9 -9 -11 -5 -4 -5 -6 -7 -9 -10 -7 -5 -3 -3 -3 -2 -4 -3 -4
2 2 2 3 2 -0 -1 2 2 1 -2 -3 -8 -14 -17 -12 -7 -8 -5 -6 -6 -5 -3 -3 -6 -10 -7 -3 -3 -6 -7 -8 -10 -12 -12 -7 -6 -5 -4 -2 -4 -4 -3
3 3 2 3 1 0 1 3 2 -2 -3 -8 -16 -17 -17 -14 -12 -5 -6 -4 -3 -3 -3 -3 -9 -9 -10 -5 -4 -6 -7 -8 -9 -10 -11 -10 -6 -5 -5 -5 -4 -3 -5
4 3 3 3 1 2 3 3 -1 -3 -9 -14 -17 -18 -16 -6 -5 -3 -4 -6 -5 -4 -3 -3 -5 -7 -9 -7 -5 -6 -7 -7 -8 -10 -10 -11 -9 -6 -6 -6 -6 -6 -6
4 3 4 3 3 0 3 3 -4 -9 -11 -14 -16 -15 -12 -10 -8 -5 -5 -6 -5 -5 -4 -3 -4 -6 -8 -8 -6 -6 -6 -7 -8 -8 -9 -10 -10 -10 -6 -6 -7 -7 -7
3 4 4 3 2 3 2 -4 -8 -9 -11 -12 -13 -11 -10 -8 -7 -8 -8 -5 -5 -6 -6 -4 -5 -7 -7 -7 -6 -6 -7 -9 -11 -14 -17 -20 -21 -20 -19 -12 -8 -8 -8
4 4 4 2 4 3 -3 -6 -9 -9 -10 -10 -11 -10 -7 -6 -6 -8 -14 -10 -4 -6 -8 -7 -6 -7 -7 -8 -9 -10 -11 -14 -20 -23 -24 -24 -24 -23 -22 -18 -10 -8 -8
4 3 3 4 3 -5 -8 -8 -8 -9 -8 -11 -9 -7 -6 -5 -6 -8 -12 -10 -5 -6 -7 -8 -7 -6 -6 -9 -10 -11 -15 -19 -22 -23 -22 -22 -21 -20 -20 -18 -11 -9 -9
3 3 4 2 -6 -8 -7 -8 -9 -8 -9 -8 -7 -6 -5 -5 -6 -8 -10 -7 -6 -5 -6 -7 -6 -7 -9 -9 -10 -12 -16 -19 -21 -22 -21 -20 -19 -18 -16 -10 -9 -10 -10
4 4 3 -5 -5 -6 -9 -9 -8 -9 -7 -6 -6 -5 -4 -5 -6 -8 -8 -6 -5 -5 -6 -6 -7 -9 -9 -10 -11 -13 -17 -20 -21 -20 -20 -20 -19 -19 -18 -16 -15 -14 -13
4 -1 -6 -5 -7 -9 -9 -8 -10 -9 -8 -7 -6 -4 -5 -5 -7 -7 -6 -5 -6 -6 -6 -6 -7 -9 -9 -10 -11 -12 -15 -20 -20 -20 -20 -20 -19 -17 -16 -15 -15 -14 -13
-3 -7 -7 -10 -5 -4 -6 -11 -12 -11 -11 -10 -7 -6 -6 -7 -8 -7 -5 -5 -6 -6 -6 -7 -8 -9 -9 -10 -11 -12 -14 -13 -13 -17 -19 -18 -17 -19 -17 -16 -15 -14 -14
-7 -10 -6 -3 -5 -12 -14 -14 -14 -14 -15 -14 -12 -10 -8 -8 -8 -8 -7 -6 -6 -7 -7 -7 -9 -9 -10 -10 -11 -13 -13 -13 -12 -13 -13 -12 -12 -13 -11 -12 -14 -16 -14
-3 -3 -2 -5 -14 -17 -15 -14 -15 -15 -16 -14 -12 -11 -8 -7 -7 -9 -10 -6 -6 -7 -7 -8 -9 -9 -9 -10 -11 -12 -12 -12 -12 -12 -12 -12 -12 -13 -11 -11 -14 -15 -16
-1 -4 -9 -14 -17 -16 -15 -16 -17 -16 -15 -15 -11 -8 -7 -6 -8 -10 -11 -7 -8 -9 -9 -8 -8 -8 -9 -10 -12 -12 -12 -12 -12 -12 -13 -12 -12 -12 -11 -12 -14 -13 -14
-5 -8 -11 -16 -14 -15 -16 -16 -16 -15 -14 -15 -13 -9 -6 -7 -8 -9 -9 -7 -8 -8 -9 -10 -10 -9 -10 -11 -14 -11 -11 -12 -12 -12 -12 -11 -12 -11 -11 -16 -13 -12 -12
-11 -16 -16 -15 -15 -16 -15 -15 -13 -12 -13 -12 -13 -13 -11 -9 -8 -9 -9 -7 -8 -8 -9 -10 -11 -10 -11 -13 -14 -12 -11 -11 -11 -12 -12 -12 -12 -12 -11 -16 -14 -14 -13
-16 -15 -15 -13 -11 -10 -9 -8 -8 -8 -7 -7 -9 -11 -12 -13 -9 -8 -8 -8 -8 -8 -9 -9 -10 -11 -12 -13 -13 -13 -12 -12 -11 -12 -12 -12 -13 -12 -12 -11 -10 -12 -14
Wind_Speed
11 12 11 9 9 6 4 3 3 5 6 8 10 11 12 13 14 15 14 14 12 10 6 7 9 10 13 12 12 11 11 7 11 12 18 13 11 13 15 14 14 14 15
12 10 9 8 7 6 5 4 3 5 7 8 9 10 12 14 15 15 13 12 10 7 7 7 7 6 8 13 13 14 14 12 14 16 11 8 10 16 15 14 15 16 16
10 7 7 7 8 6 4 2 3 5 7 8 10 11 12 13 12 9 12 10 8 7 6 8 8 9 9 4 10 11 12 16 14 13 12 10 13 16 12 11 16 17 18
7 7 7 8 7 6 3 1 4 6 8 9 9 10 11 10 8 12 9 6 9 7 6 8 9 11 12 13 11 9 11 15 13 14 15 11 17 15 13 12 15 18 18
8 8 9 8 7 4 1 2 4 7 8 8 9 11 11 8 7 11 5 6 12 10 9 11 11 12 14 16 13 11 13 15 18 17 16 17 16 11 14 17 18 16 14
10 10 10 9 8 5 2 2 5 8 8 9 11 13 11 7 8 10 8 11 17 13 8 10 13 15 16 17 17 17 13 16 16 18 19 19 17 16 17 18 25 17 14
10 12 11 11 9 5 4 3 7 10 11 12 13 13 11 9 10 8 15 12 16 13 15 15 17 15 15 17 19 19 20 20 17 18 17 19 20 19 17 13 11 15 16
11 13 13 13 11 8 6 4 8 9 11 12 12 13 6 9 6 12 17 12 16 15 18 19 19 18 19 19 19 19 20 21 23 23 22 21 19 18 23 23 19 18 16
15 16 16 15 12 8 6 5 10 14 14 13 13 9 6 6 14 8 16 15 12 15 18 20 22 24 24 20 20 20 21 21 21 20 19 19 19 20 20 22 22 20 21
19 19 18 15 11 9 6 10 14 15 15 12 15 14 13 14 10 12 9 11 18 19 17 18 22 24 20 19 20 21 21 21 20 19 19 18 19 19 21 21 23 27 21
22 21 19 17 11 9 9 13 16 14 14 15 15 15 14 15 15 15 19 15 15 16 17 17 21 23 21 21 20 22 22 22 21 20 19 18 17 19 22 24 25 26 24
23 23 21 18 15 11 10 13 14 13 15 16 16 15 14 10 10 11 16 19 20 18 16 16 17 18 19 21 20 23 23 21 22 22 23 23 24 21 23 24 26 27 28
24 25 23 20 17 12 14 20 13 16 18 16 15 14 12 11 12 14 17 21 19 17 16 17 15 20 22 22 23 23 26 26 26 27 29 30 31 32 28 28 28 28 29
25 26 24 22 11 26 17 12 15 17 17 15 15 13 13 13 16 19 18 17 19 19 17 16 17 19 16 19 25 28 28 31 33 35 36 35 34 35 35 34 30 30 30
26 25 22 14 20 16 10 12 16 16 15 16 15 15 15 15 19 21 19 16 15 21 21 14 13 13 14 17 21 25 30 32 31 30 30 31 32 33 33 32 30 29 30
24 19 11 14 15 8 9 15 16 16 17 16 16 16 17 18 21 21 18 16 15 17 23 17 16 15 15 18 22 27 30 30 29 28 29 29 30 31 31 32 28 27 27
20 10 20 23 7 10 15 18 17 18 18 17 17 18 19 20 23 22 19 17 16 18 20 21 19 17 21 22 22 27 28 28 28 27 27 27 26 26 27 26 26 27 28
19 15 17 10 11 15 18 19 19 19 20 20 20 21 21 22 25 22 20 18 19 19 21 23 21 17 21 21 26 28 27 26 26 26 27 26 25 26 28 29 29 29 29
13 12 10 8 12 19 20 20 20 21 22 22 22 22 24 26 26 21 20 20 21 22 25 26 21 18 21 24 22 22 24 24 24 24 24 24 24 23 23 23 23 25 25
8 7 8 11 19 22 21 19 21 21 21 22 22 25 26 26 26 23 21 22 24 25 23 24 19 20 19 18 21 21 19 18 19 22 20 20 20 22 24 24 24 24 21
5 9 10 21 19 18 19 19 20 21 22 23 24 26 27 27 27 27 27 22 20 21 19 18 20 20 20 19 19 18 20 19 20 18 15 16 20 21 20 20 21 21 21
4 13 22 19 20 20 20 20 21 23 24 25 27 27 27 28 28 29 30 26 22 20 20 21 21 22 22 20 18 18 18 17 19 13 19 23 20 21 19 16 17 18 21
23 16 16 19 20 20 20 21 22 25 28 29 29 29 29 30 29 29 23 22 23 22 23 24 25 23 22 20 18 17 16 17 19 20 23 25 20 20 16 17 15 15 15
14 16 19 20 20 21 22 23 25 27 29 30 30 30 32 33 31 26 24 24 24 24 24 24 26 22 20 23 20 16 16 18 19 19 17 23 16 19 19 15 8 6 13
16 18 19 20 23 25 24 25 27 30 32 33 32 32 32 34 33 26 24 26 25 24 23 23 24 24 24 22 19 15 16 17 21 20 18 14 17 22 21 16 9 11 14
17 19 21 23 25 28 28 28 29 34 36 35 35 33 30 29 29 26 26 27 29 26 22 23 22 23 21 19 17 17 16 17 18 19 9 14 18 17 15 11 11 19 18
Wind_Direction
169 176 178 182 190 182 190 227 272 293 312 320 323 320 320 321 320 321 324 324 321 312 276 263 286 299 309 320 330 337 349 352 328 339 347 354 351 351 347 344 339 336 331
179 180 186 183 192 196 219 252 285 306 312 313 317 322 328 331 328 329 335 338 336 325 298 245 247 265 292 311 324 331 333 329 323 333 339 331 340 335 330 331 332 332 331
191 177 187 195 200 203 215 241 295 319 327 330 334 334 333 331 330 331 335 337 347 339 306 283 267 257 276 311 321 323 318 315 316 324 318 293 319 313 302 314 321 324 323
183 186 202 207 202 184 183 342 340 347 337 330 329 335 336 334 333 342 343 17 359 333 294 279 274 279 285 287 291 300 299 307 298 308 304 286 310 308 294 300 312 313 317
200 204 203 191 180 176 207 338 341 343 336 332 336 337 339 333 321 341 321 319 354 327 294 281 279 279 279 281 278 287 282 282 296 295 290 304 303 292 291 285 307 303 308
202 209 200 197 189 204 244 314 341 349 340 331 335 340 340 317 311 319 333 303 324 332 327 310 300 291 283 279 279 276 277 278 284 284 290 289 284 289 296 293 302 297 311
209 204 200 198 207 221 250 288 339 345 343 339 340 336 336 318 300 293 321 299 315 320 327 316 317 306 294 285 280 276 272 266 270 266 283 292 298 294 285 287 279 285 298
205 206 205 210 222 237 247 301 336 345 341 336 336 340 326 306 293 296 303 301 307 310 320 319 321 314 305 297 281 276 275 274 273 274 278 284 281 277 277 284 286 280 291
208 209 213 222 233 245 255 306 339 336 327 326 325 323 322 301 308 297 305 299 288 298 306 317 318 315 305 287 278 277 276 278 279 279 283 284 280 276 278 273 275 288 285
212 215 217 228 241 247 271 321 327 324 320 315 314 315 307 298 301 305 303 286 289 294 295 309 312 315 303 285 278 278 281 283 283 281 281 285 282 278 277 276 279 274 273
215 215 224 235 243 255 278 315 321 313 312 310 308 306 304 298 294 285 296 295 296 297 294 296 309 309 299 287 277 274 281 286 285 285 279 275 277 277 276 277 278 277 278
219 222 231 232 232 248 291 314 298 301 307 306 306 305 301 289 287 287 296 301 298 299 290 287 305 300 302 289 274 278 284 286 287 284 280 277 276 279 278 277 276 274 275
226 230 231 230 236 236 296 305 292 300 302 305 305 303 300 301 302 299 296 295 290 295 290 286 285 290 298 282 274 281 287 290 291 288 285 284 283 281 279 277 274 273 273
232 231 230 231 236 314 289 285 278 292 299 303 302 299 300 300 305 308 298 291 294 291 289 292 287 297 281 275 278 284 288 291 292 291 290 288 285 282 280 278 276 274 272
229 228 225 224 301 292 270 272 283 290 297 304 300 297 292 295 304 312 306 290 280 289 292 292 284 291 284 281 282 286 293 295 294 293 292 289 286 283 281 278 276 273 271
224 216 223 277 281 263 274 279 283 291 299 300 298 291 287 293 307 313 305 288 271 271 280 283 284 280 280 287 293 299 300 299 299 298 296 293 289 287 284 281 280 277 273
208 249 270 289 248 275 281 280 285 293 293 293 293 287 282 293 305 306 298 286 275 267 269 281 278 282 291 294 296 301 303 303 304 303 300 298 297 292 284 278 274 271 268
285 252 268 259 272 278 279 282 289 291 286 285 288 278 284 292 300 299 292 280 276 271 269 278 279 275 291 293 299 302 303 305 304 303 304 304 296 288 283 281 279 276 273
264 242 238 286 276 292 283 287 286 284 283 282 282 276 284 291 294 290 284 279 276 274 269 271 269 276 290 298 300 302 304 306 305 306 311 303 293 292 293 288 285 281 278
245 240 261 269 295 289 284 282 283 284 283 282 281 280 285 288 290 290 281 278 277 275 272 270 269 276 283 291 297 303 303 302 303 309 311 299 297 300 293 286 280 282 280
231 261 291 295 294 286 285 289 290 290 290 289 286 284 284 285 289 292 287 276 271 268 263 263 270 275 284 289 293 297 299 303 307 308 307 305 307 302 297 292 286 281 272
267 281 296 293 287 292 293 292 295 296 295 292 289 286 284 285 292 292 286 274 263 262 262 264 270 273 281 286 291 294 295 303 310 309 311 306 307 303 298 292 292 288 270
299 300 291 288 293 293 294 298 300 297 295 293 289 288 286 286 293 289 287 267 264 262 264 269 272 272 277 286 290 288 290 293 297 302 308 304 312 301 300 300 305 294 287
299 293 293 294 295 298 301 304 304 301 300 297 291 287 283 286 291 287 277 268 262 270 271 274 273 272 275 287 285 281 285 291 297 304 302 301 311 307 304 302 295 303 319
298 298 299 300 302 302 304 306 308 307 304 301 297 290 288 287 287 284 275 267 267 269 279 276 272 273 278 282 280 276 282 293 298 305 303 290 310 310 310 301 268 290 327
304 303 302 304 305 304 305 305 305 301 298 301 299 295 293 286 282 276 270 267 269 271 278 279 274 274 276 277 279 276 278 282 295 311 296 308 310 321 318 307 297 311 319
Height
1582 1583 1584 1585 1587 1587 1589 1589 1589 1589 1587 1587 1586 1587 1585 1584 1584 1582 1580 1578 1577 1576 1576 1575 1574 1572 1570 1569 1569 1568 1567 1567 1566 1564 1563 1561 1559 1558 1557 1555 1554 1552 1550
1580 1582 1584 1585 1586 1586 1587 1588 1589 1589 1587 1586 1585 1585 1585 1583 1582 1580 1579 1577 1576 1575 1574 1573 1573 1572 1570 1568 1567 1566 1565 1564 1564 1563 1561 1560 1558 1557 1555 1554 1552 1550 1548
1579 1581 1583 1585 1585 1585 1586 1588 1588 1587 1586 1585 1583 1582 1582 1581 1580 1579 1578 1576 1575 1574 1573 1572 1572 1571 1570 1569 1566 1565 1563 1562 1561 1561 1560 1558 1556 1555 1553 1551 1550 1548 1547
1578 1580 1582 1584 1584 1585 1586 1585 1587 1586 1585 1584 1582 1581 1581 1579 1578 1576 1575 1574 1573 1572 1571 1571 1570 1569 1567 1567 1566 1565 1563 1561 1559 1558 1557 1556 1555 1552 1551 1549 1548 1546 1545
1577 1579 1580 1582 1583 1584 1585 1585 1586 1585 1584 1583 1581 1579 1578 1577 1576 1573 1573 1572 1571 1570 1569 1567 1566 1565 1564 1563 1562 1561 1561 1560 1558 1556 1554 1552 1551 1550 1548 1547 1546 1544 1542
1576 1577 1578 1581 1581 1583 1583 1584 1584 1583 1582 1581 1579 1577 1575 1574 1573 1571 1571 1569 1568 1567 1566 1564 1563 1561 1559 1558 1557 1556 1556 1556 1556 1553 1551 1549 1547 1545 1544 1544 1543 1541 1539
1574 1576 1577 1579 1580 1580 1580 1581 1581 1580 1579 1578 1576 1574 1571 1570 1569 1569 1567 1566 1564 1563 1562 1560 1558 1556 1554 1553 1552 1551 1550 1549 1549 1548 1547 1546 1544 1542 1540 1539 1539 1539 1537
1571 1574 1576 1576 1577 1577 1578 1579 1578 1577 1575 1574 1574 1571 1571 1570 1567 1565 1563 1562 1560 1559 1558 1556 1554 1552 1550 1548 1547 1546 1545 1544 1543 1543 1542 1540 1540 1539 1537 1535 1535 1534 1533
1569 1571 1573 1574 1575 1576 1576 1575 1574 1573 1572 1571 1571 1571 1569 1568 1565 1561 1559 1558 1557 1556 1554 1552 1549 1547 1544 1542 1542 1541 1540 1538 1537 1537 1536 1535 1534 1533 1533 1530 1530 1529 1528
1566 1568 1569 1571 1573 1573 1573 1572 1572 1571 1569 1568 1568 1566 1565 1564 1563 1559 1557 1556 1554 1552 1550 1548 1545 1542 1539 1538 1537 1536 1534 1533 1532 1531 1530 1529 1529 1528 1527 1526 1525 1523 1522
1563 1564 1566 1568 1569 1569 1569 1569 1568 1568 1567 1566 1564 1562 1561 1560 1559 1557 1553 1552 1550 1548 1546 1544 1541 1538 1535 1534 1533 1531 1529 1528 1527 1526 1524 1523 1522 1522 1521 1520 1518 1517 1517
1559 1561 1562 1563 1563 1563 1566 1564 1565 1563 1562 1562 1560 1558 1557 1557 1556 1554 1550 1547 1544 1542 1540 1538 1535 1533 1531 1529 1527 1526 1524 1523 1521 1520 1518 1516 1515 1514 1514 1513 1512 1511 1510
1554 1556 1557 1558 1558 1559 1559 1559 1561 1560 1558 1557 1556 1554 1553 1552 1551 1549 1546 1542 1538 1537 1535 1533 1531 1529 1527 1524 1522 1521 1518 1517 1515 1513 1510 1508 1506 1505 1504 1503 1503 1502 1502
1550 1551 1552 1553 1556 1555 1554 1555 1556 1555 1554 1553 1551 1550 1549 1548 1547 1544 1541 1538 1533 1531 1530 1527 1525 1523 1521 1520 1518 1516 1513 1510 1507 1504 1501 1499 1497 1495 1493 1492 1492 1492 1492
1545 1547 1550 1552 1551 1548 1548 1550 1551 1550 1549 1548 1547 1546 1544 1543 1541 1538 1535 1533 1531 1527 1524 1523 1521 1518 1517 1515 1513 1511 1507 1503 1499 1496 1494 1491 1488 1485 1483 1482 1481 1481 1482
1542 1546 1548 1548 1547 1547 1547 1547 1546 1545 1544 1543 1542 1541 1539 1538 1535 1531 1529 1527 1526 1524 1519 1519 1516 1514 1512 1509 1507 1504 1500 1496 1492 1489 1485 1482 1479 1477 1475 1473 1472 1472 1472
1538 1541 1544 1544 1544 1545 1544 1542 1542 1540 1539 1538 1537 1535 1534 1531 1528 1525 1523 1521 1519 1517 1514 1513 1510 1507 1505 1503 1500 1497 1493 1489 1485 1481 1478 1475 1472 1470 1467 1465 1463 1462 1462
1534 1536 1536 1538 1540 1540 1539 1538 1537 1535 1533 1532 1531 1529 1527 1525 1522 1519 1517 1515 1513 1511 1508 1506 1505 1502 1499 1497 1494 1490 1486 1483 1479 1475 1471 1468 1464 1461 1458 1456 1455 1454 1452
1531 1532 1532 1533 1535 1535 1533 1532 1530 1529 1527 1526 1524 1522 1521 1518 1515 1513 1510 1508 1506 1503 1501 1498 1497 1495 1492 1490 1487 1484 1479 1476 1472 1468 1465 1461 1456 1454 1452 1449 1447 1445 1444
1527 1531 1528 1530 1531 1529 1527 1526 1524 1523 1521 1519 1517 1515 1513 1511 1508 1505 1503 1501 1498 1495 1494 1491 1490 1489 1488 1485 1481 1477 1474 1472 1467 1463 1459 1454 1451 1448 1445 1442 1440 1438 1437
1525 1527 1527 1527 1525 1523 1521 1520 1518 1516 1514 1512 1510 1508 1505 1503 1500 1497 1494 1492 1491 1489 1487 1485 1485 1484 1482 1480 1477 1473 1469 1466 1462 1458 1454 1452 1447 1443 1439 1435 1433 1432 1431
1522 1522 1521 1520 1519 1517 1516 1514 1512 1510 1507 1505 1502 1500 1497 1495 1492 1489 1485 1483 1483 1482 1481 1480 1479 1477 1475 1474 1470 1467 1464 1461 1457 1454 1449 1445 1442 1437 1434 1430 1428 1426 1424
1518 1515 1515 1514 1513 1511 1510 1508 1506 1503 1500 1497 1494 1492 1489 1486 1483 1480 1477 1476 1474 1474 1473 1472 1470 1470 1468 1466 1464 1461 1460 1457 1454 1450 1445 1438 1436 1431 1428 1425 1423 1420 1419
1511 1510 1510 1508 1507 1506 1504 1502 1499 1496 1492 1488 1485 1483 1480 1477 1474 1472 1469 1468 1467 1466 1465 1464 1463 1462 1461 1459 1457 1455 1454 1451 1448 1446 1442 1434 1431 1427 1423 1420 1418 1417 1414
1506 1505 1504 1502 1501 1499 1498 1495 1492 1487 1483 1480 1476 1473 1471 1467 1465 1464 1461 1459 1459 1458 1458 1457 1456 1455 1454 1452 1451 1450 1449 1447 1443 1440 1437 1432 1428 1422 1417 1414 1414 1413 1410
1500 1499 1498 1497 1495 1492 1490 1488 1485 1479 1474 1470 1466 1463 1461 1458 1455 1455 1453 1452 1451 1451 1451 1450 1449 1448 1447 1445 1444 1443 1443 1441 1439 1435 1432 1429 1425 1422 1414 1411 1410 1407 1405